Weather History for Winston-Salem, NC

Change the Weather History Date:

Sunday, May 26, 2013

  Actual Average Record
Temperature  
Mean Temperature 63 °F -  
Max Temperature 73 °F 77 °F 91 °F (1975)
Min Temperature 53 °F 57 °F 38 °F (1988)
Degree Days  
Heating Degree Days 2    
Growing Degree Days 13 (Base 50)    
Moisture  
Dew Point 44 °F    
Average Humidity 53    
Maximum Humidity 75    
Minimum Humidity 35    
Precipitation  
Precipitation 0.00 in - - ()
Sea Level Pressure  
Sea Level Pressure 30.22 in    
Wind  
Wind Speed 1 mph (WNW)    
Max Wind Speed 8 mph    
Max Gust Speed -    
Visibility 10 miles    
Events Rain    
Averages and records for this station are not official NWS values.
T = Trace of Precipitation, MM = Missing Value Source: NWS Daily Summary

Daily Weather History Graph

Daily Weather History Graph

Search for Another Location

Airport:

Trip Planner

Search our weather history database for the weather conditions in past years. The results will help you decide how hot, cold, wet, or windy it might be!

Date:

Astronomy

May. 26, 2013 Rise Set
Actual Time 6:07 AM EDT 8:28 PM EDT
Civil Twilight 5:38 AM EDT 8:58 PM EDT
Nautical Twilight 5:02 AM EDT 9:34 PM EDT
Astronomical Twilight 4:22 AM EDT 10:14 PM EDT
Moon 10:15 PM EDT (5/26) 7:34 AM EDT (5/26)
Length of Visible Light 15h 20m
Length of Day
14h 21m
Waning Gibbous, 97% of the Moon is Illuminated
May 26
Waning Gibbous
May 31
Last Quarter
Jun 8
New
Jun 16
First Quarter
Jun 23
Full

Hourly Weather History & Observations

Time (EDT) Temp. Dew Point Humidity Pressure Visibility Wind Dir Wind Speed Gust Speed Precip Events Conditions
12:54 AM 54.0 °F 37.9 °F 55% 30.22 in 10.0 mi Calm Calm - N/A   Clear
1:54 AM 55.0 °F 39.0 °F 55% 30.22 in 10.0 mi Calm Calm - N/A   Partly Cloudy
2:54 AM 54.0 °F 42.1 °F 64% 30.21 in 10.0 mi Calm Calm - N/A   Overcast
3:54 AM 55.0 °F 39.9 °F 57% 30.21 in 10.0 mi Calm Calm - N/A   Mostly Cloudy
4:54 AM 55.0 °F 42.1 °F 62% 30.22 in 10.0 mi Calm Calm - N/A   Overcast
5:54 AM 53.1 °F 44.1 °F 71% 30.24 in 10.0 mi Calm Calm - N/A   Overcast
6:54 AM 55.9 °F 43.0 °F 62% 30.25 in 10.0 mi Calm Calm - N/A   Overcast
7:54 AM 57.0 °F 44.1 °F 62% 30.26 in 10.0 mi Calm Calm - 0.00 in Rain Light Rain
8:54 AM 57.9 °F 43.0 °F 58% 30.28 in 10.0 mi Calm Calm - 0.00 in   Overcast
9:54 AM 59.0 °F 46.0 °F 62% 30.29 in 10.0 mi WNW 3.5 mph - 0.00 in Rain Light Rain
10:54 AM 61.0 °F 42.1 °F 50% 30.28 in 10.0 mi Calm Calm - 0.00 in   Mostly Cloudy
11:54 AM 66.0 °F 42.1 °F 42% 30.27 in 10.0 mi North 6.9 mph - N/A   Mostly Cloudy
12:54 PM 66.9 °F 44.1 °F 44% 30.26 in 10.0 mi Variable 5.8 mph - N/A   Partly Cloudy
1:54 PM 71.1 °F 42.1 °F 35% 30.22 in 10.0 mi WNW 8.1 mph - N/A   Clear
2:54 PM 72.0 °F 44.1 °F 37% 30.21 in 10.0 mi WNW 8.1 mph - N/A   Clear
3:54 PM 73.0 °F 44.1 °F 35% 30.19 in 10.0 mi Variable 4.6 mph - N/A   Clear
4:54 PM 73.0 °F 44.1 °F 35% 30.17 in 10.0 mi Variable 3.5 mph - N/A   Clear
5:54 PM 73.9 °F 45.0 °F 35% 30.17 in 10.0 mi West 8.1 mph - N/A   Clear
6:54 PM 72.0 °F 46.0 °F 40% 30.17 in 10.0 mi WSW 4.6 mph - N/A   Clear
7:54 PM 71.1 °F 46.9 °F 42% 30.18 in 10.0 mi Calm Calm - N/A   Clear
8:54 PM 68.0 °F 46.9 °F 47% 30.19 in 10.0 mi Calm Calm - N/A   Clear
9:54 PM 62.1 °F 50.0 °F 65% 30.21 in 10.0 mi Calm Calm - N/A   Clear
10:54 PM 59.0 °F 51.1 °F 75% 30.22 in 10.0 mi Calm Calm - N/A   Clear
11:54 PM 57.9 °F 50.0 °F 75% 30.22 in 10.0 mi Calm Calm - N/A   Clear